Weather in Demyansk

Russia / Novgorod Oblast     57°38′34″N   32°27′51″E
temp.,
°C
wind,
m/s
gust,
m/s
humid.,
%
clouds,
%
prec.,
mm/h
press.,
hPa
HPBL,
m
13 august, sat
sat1300:00+16s118598 0.0 102411
03:00+14ssw119299 0.0 102411
06:00+14s119316 0.0 102412
09:00+21sw126546 0.0 1023331
12:00+25w1147100 0.0 10231151
15:00+27wnw114197 0.0 10211630
18:00+26ese0053100 0.0 102157
21:00+19ne1172100 0.0 102111
14 august, sun
sun1400:00+17ese117799 0.0 102111
03:00+16se118132 0.0 102111
06:00+15ese11825 0.0 102111
09:00+22ese115817 0.0 1021347
12:00+27se114345 0.0 10201499
15:00+29se013785 0.0 10192113
18:00+28wsw114873 0.0 1018102
21:00+21sse116549 0.0 101913
15 august, mon
mon1500:00+18sse226843 0.0 101929
03:00+17se227442 0.0 102025
06:00+16ese23815 0.0 102059
09:00+23se24585 0.0 1020379
12:00+28se34405 0.0 10201713
15:00+30se343511 0.0 10192351
18:00+28se354117 0.0 1018509
21:00+21ese34571 0.0 101966
16 august, tue
tue1600:00+19ese310743 0.0 1020211
03:00+18se39754 0.0 1020167
06:00+18se27770 0.0 1020138
09:00+24se48515 0.0 1020433
12:00+29se46345 0.0 10191844
15:00+31sse453047 0.0 10192424
18:00+28sse374193 0.0 1019866
21:00+22se396176 0.0 1019188
17 august, wed
wed1700:00+19se277031 0.0 1020148
03:00+18se227497 0.0 102037
06:00+18ese2573100 0.0 1020104
09:00+23se3654100 0.0 1020333
12:00+29se3536100 0.0 10191659
15:00+30se343197 0.0 10182422
18:00+28ese364182 0.0 1018390
21:00+22ese396099 0.0 1019174